Regional Weather Roundup
Issued by NWS

Home | Current Version | Previous Version | Text Only | Print | Product List | Glossary On
Versions: 1 2 3 4 5 6 7 8 9 10 11 12 13 14 15 16 17 18 19 20 21 22 23 24 25 26 27 28 29 30 31 32 33 34 35 36 37 38 39 40 41 42 43 44 45 46 47 48 49 50
000
ASUS43 KLMK 030002
RWRKY
KENTUCKY REGIONAL WEATHER ROUNDUP
NATIONAL WEATHER SERVICE LOUISVILLE KY
700 PM EST FRI DEC 02 2016

NOTE "FAIR" INDICATES FEW OR NO CLOUDS BELOW 12,000 FEET
WITH NO SIGNIFICANT WEATHER AND/OR OBSTRUCTIONS TO VISIBILITY.

KYZ001>023-026-027-061>063-070>075-030100-
WESTERN AND SOUTH CENTRAL KENTUCKY

CITY           SKY/WX    TMP DP  RH WIND       PRES   REMARKS
PADUCAH        MOCLDY    41  30  65 CALM      30.29S
HENDERSON      CLEAR     34  27  75 CALM      30.32R
OWENSBORO      CLEAR     40  31  70 VRB3      30.32R
HOPKINSVILLE   PTCLDY    47  28  48 N7        30.28S
BOWLING GREEN  CLEAR     46  29  51 N3        30.29R
GLASGOW        NOT AVBL
$$

KYZ024-025-028>034-038-045-046-053-030100-
NORTH CENTRAL KENTUCKY

CITY           SKY/WX    TMP DP  RH WIND       PRES   REMARKS
LOUISVILLE/SDF CLOUDY    44  28  53 NW6       30.30R
LOUISVILLE/LOU CLOUDY    44  30  57 NW6       30.30R
FORT KNOX      PTCLDY    35  28  75 NW5       30.28R WCI  31
$$

KYZ035>037-039>044-047>052-055>060-089>105-030100-
NORTHEAST KENTUCKY

CITY           SKY/WX    TMP DP  RH WIND       PRES   REMARKS
LEXINGTON      CLOUDY    40  29  64 N7        30.28R
COVINGTON      CLOUDY    40  30  67 NW12      30.27R WCI  33
FRANKFORT      CLOUDY    41  29  62 NW3       30.28R
$$

KYZ054-064>069-076>088-106>120-030100-
SOUTHEAST KENTUCKY

CITY           SKY/WX    TMP DP  RH WIND       PRES   REMARKS
JACKSON        CLEAR     37  28  70 N5        30.25R WCI  33
LONDON         CLEAR     41  26  55 N5        30.24R
SOMERSET       CLEAR     41  28  60 CALM      30.27S
MIDDLESBORO    CLEAR     38  31  74 CALM      30.24S
MONTICELLO     CLEAR     37  28  70 W5        30.28R WCI  33
$$





USA.gov is the U.S. government's official web portal to all federal, state and local government web resources and services.